Location: Pel�-Koumbol�
(14.9505°N, 3.0798°W)
Time: 09:59:31
(UTC+00:00)

Cosmos 1992 Rocket - Pass Details

Date: 17 February 2020
Orbit: 759 x 766 km, 74.0° (Epoch: 28 March)

Event Time Altitude Azimuth Distance (km) Brightness Sun altitude
Rises 05:38:12 0° 343° (NNW) 3,220 7.0 -14.6°
Reaches altitude 10° 05:40:35 10° 341° (NNW) 2,293 6.2 -14.0°
Maximum altitude 05:45:45 70° 258° (WSW) 806 3.9 -12.8°
Drops below altitude 10° 05:50:54 10° 175° (S) 2,285 6.7 -11.5°
Sets 05:53:17 0° 172° (S) 3,209 7.5 -11.0°
